This is the latest recevied weather packets stored in our database for station/object K0WOI. If no packets are shown the sender has not sent any weather packets the latest 10 day(s).
| Time | Temp. | Humidity | Pressure | Rain* | Wind** | Luminosity | Snow |
|---|---|---|---|---|---|---|---|
| 1777597095 | 10.56° C | 48% | 1016.9 hPa | 0 mm | - | 8 W/m² | - |
| 1777596792 | 10.56° C | 47% | 1016.9 hPa | 0 mm | - | 10 W/m² | - |
| 1777596487 | 10.56° C | 51% | 1016.8 hPa | 0 mm | - | 12 W/m² | - |
| 1777596185 | 10.56° C | 48% | 1016.7 hPa | 0 mm | - | 15 W/m² | - |
| 1777595882 | 11.11° C | 49% | 1016.8 hPa | 0 mm | - | 18 W/m² | - |
| 1777595582 | 10.56° C | 48% | 1016.6 hPa | 0 mm | - | 20 W/m² | - |
| 1777595278 | 11.11° C | 44% | 1016.7 hPa | 0 mm | - | 25 W/m² | - |
| 1777594974 | 11.11° C | 47% | 1016.6 hPa | 0 mm | - | 29 W/m² | - |
| 1777594670 | 11.11° C | 48% | 1016.5 hPa | 0 mm | - | 31 W/m² | - |
| 1777594368 | 11.11° C | 45% | 1016.7 hPa | 0 mm | - | 35 W/m² | - |
| 1777594063 | 11.11° C | 44% | 1016.5 hPa | 0 mm | - | 38 W/m² | - |
| 1777593759 | 11.11° C | 45% | 1016.4 hPa | 0 mm | - | 42 W/m² | - |
| 1777593456 | 11.11° C | 45% | 1016.7 hPa | 0 mm | - | 47 W/m² | - |
| 1777593154 | 11.67° C | 44% | 1016.5 hPa | 0 mm | - | 55 W/m² | - |
| 1777592853 | 11.67° C | 43% | 1016.5 hPa | 0 mm | - | 64 W/m² | - |
| 1777592550 | 11.67° C | 47% | 1016.5 hPa | 0 mm | - | 64 W/m² | - |
| 1777592246 | 11.67° C | 45% | 1016.3 hPa | 0 mm | - | 69 W/m² | - |
| 1777591942 | 11.67° C | 44% | 1016.7 hPa | 0 mm | - | 64 W/m² | - |
| 1777591638 | 11.67° C | 43% | 1016.5 hPa | 0 mm | - | 63 W/m² | - |
| 1777591335 | 11.67° C | 45% | 1016.5 hPa | 0 mm | - | 67 W/m² | - |
| 1777591031 | 12.22° C | 41% | 1016.4 hPa | 0 mm | - | 80 W/m² | - |
| 1777590726 | 12.22° C | 45% | 1016.2 hPa | 0 mm | - | 126 W/m² | - |
| 1777590423 | 12.22° C | 40% | 1016.3 hPa | 0 mm | - | 118 W/m² | - |
| 1777590119 | 12.22° C | 40% | 1016.3 hPa | 0 mm | - | 88 W/m² | - |
| 1777589816 | 12.22° C | 40% | 1016.4 hPa | 0 mm | - | 80 W/m² | - |
* Rain latest hour (hover to see other rain measurements)
** Current wind speed in m/s (hover to see current wind gust speed)